Regional Weather Roundup
Issued by NWS

Home | Current Version | Previous Version | Text Only | Print | Product List | Glossary On
Versions: 1 2 3 4 5 6 7 8 9 10 11 12 13 14 15 16 17 18 19 20 21 22 23 24 25 26 27 28 29 30 31 32 33 34 35 36 37 38 39 40 41 42 43 44 45 46 47 48 49 50
000
ASUS44 KLUB 181101
RWRTX
WEST TEXAS WEATHER ROUNDUP
NATIONAL WEATHER SERVICE LUBBOCK TX
600 AM CDT SAT APR 18 2015

NOTE: "FAIR" INDICATES FEW OR NO CLOUDS BELOW 12,000 FEET WITH NO
SIGNIFICANT WEATHER AND/OR OBSTRUCTIONS TO VISIBILITY.

TXZ004-006>008-010-012-014-016-OKZ002-181200-
TEXAS PANHANDLE/OKLAHOMA PANHANDLE

CITY           SKY/WX    TMP DP  RH WIND       PRES   REMARKS
AMARILLO       FOG       45  45 100 SW6       29.94F VSB<1/4
BORGER         MOCLDY    53  51  93 SW6       29.92F FOG
CANADIAN       PTCLDY    55  55  97 E3        29.91S
DALHART        PTCLDY    35  28  75 W7        29.95F WCI  29
DUMAS          CLEAR     36  25  63 W12       29.93S WCI  28
GUYMON         CLEAR     36  32  85 SW8       29.90F WCI  30
$$

TXZ026-029-035-045-048-181200-
SOUTHERN PANHANDLE/SOUTH PLAINS/ROLLING PLAINS

CITY           SKY/WX    TMP DP  RH WIND       PRES   REMARKS
CHILDRESS      FOG       53  53 100 E5        29.91F VSB 1/4
SEMINOLE       PTCLDY    43  34  70 NW8       29.96S
LUBBOCK        FOG       51  51 100 SW3       29.93S VSB 1/16
$$

TXZ052-054-060>062-072-078-127-140-154-169-181200-
PERMIAN BASIN/CONCHO VALLEY/BIG COUNTRY/EDWARDS PLATEAU

CITY           SKY/WX    TMP DP  RH WIND       PRES   REMARKS
ABILENE        CLOUDY    61  58  90 S8        29.94R
JUNCTION       CLOUDY    60  59  96 W3        29.92R
MIDLAND        PTCLDY    54  52  93 SE8       29.93F
ODESSA         MOCLDY    52  43  71 S6        29.94F
SAN ANGELO     CLOUDY    58  56  93 W7        29.94F
SWEETWATER     PTCLDY    56  56 100 S6        29.96F
WINK           CLOUDY    56  22  26 S7        29.93R
$$

TXZ055-058-074-075-080-082-181200-
FAR WEST/SOUTHWEST MOUNTAINS/TRANS PECOS

CITY           SKY/WX    TMP DP  RH WIND       PRES   REMARKS
DRYDEN           N/A     64  61  90 E8        29.91S
EL PASO        PTCLDY    51  13  21 S8        29.99F
FORT STOCKTON  PTCLDY    58  29  33 S3        29.94F
MARFA          CLOUDY    45  36  70 NE5       30.04S
PECOS          PTCLDY    48  29  49 SE5       29.93F
$$

TXZ014-016-019-021>030-083-181200
TEXAS TECH WEST TEXAS MESONET/TEXAS PANHANDLE/NORTHERN SOUTH PLAINS

CITY           SKY/WX    TMP DP  RH WIND       PRES   REMARKS
ABERNATHY 5ENE   N/A     49  49  97 SW3       29.95S
AMARILLO 9NNE    N/A     42  42 100 SE2       29.94F
AMARILLO 7SSE    N/A     46  46  99 W3        29.95F
AMHERST 1NE      N/A     38  27  64 W9        29.96S WCI  32
BOOTLEG 11WNW    N/A     32  21  62 W7        29.98F WCI  26
CANADIAN 6E      N/A     57  56  96 SE5       29.91F
CAPROCK CYN SP   N/A     55  55 100 S6        29.93S
CLARENDON 2WSW   N/A     54  52  94 CALM      29.92F
DIMMITT 2NE      N/A     37  19  47 W10       29.96S WCI  30
FLOYDADA 2NNE    N/A     55  54  97 S8        29.92F
FRIONA 2NE       N/A     30  21  70 SW5       29.98S WCI  25
GOODLETT 3W      N/A     55  53  94 NE1       29.91F
HART 3N          N/A     35  27  71 W7        29.95F WCI  29
HEREFORD 2NW     N/A     33  19  54 SW7       29.96F WCI  27
MCLEAN 1E        N/A     54  54  98 S7        29.91F
MEMPHIS 1NE      N/A     54  53  98 CALM      29.91F
MULESHOE 2SSW    N/A     30  25  81 SW2       29.98F
OLTON 6S         N/A     39  29  67 NW12      29.95S WCI  32
PALO DURO SP     N/A     49  47  94 W3        29.95F
PAMPA 2E         N/A     55  54  99 S7        29.93S
PLAINVIEW 1S     N/A     48  48  99 W5        29.93F
SILVERTON 7ESE   N/A     51  50  96 S6        29.93S
TULIA 2ENE       N/A     38  38  99 NW8       29.94F WCI  32
UMBARGER 3NNE    N/A     32  32  99 W6        29.96F WCI  26
$$

TXZ033>036-039>041-045>048-181200
TEXAS TECH WEST TEXAS MESONET/SOUTH PLAINS

CITY           SKY/WX    TMP DP  RH WIND       PRES   REMARKS
AIKEN 3WSW       N/A     49  49 100 W6        29.95S
ANDREWS 2NE      N/A     51  31  45 S1        29.93F
ANTON 6SSW       N/A     40  30  67 NW7       29.95F
BROWNFIELD 2S    N/A     42  33  69 NW8       29.95S
DENVR CTY 7WNW   N/A     40  30  68 NW8       29.97F WCI  34
GAIL 2ESE        N/A     53  51  95 SE2       29.93R
LAMESA 2SE       N/A     52  51  95 SW5       29.94F
LEVELLAND 4S     N/A     39  30  72 NW8       29.95F WCI  33
LUBBOCK 3WNW     N/A     48  47  97 NW5       29.95R
MORTON 1ENE      N/A     37  28  70 W6        29.97F WCI  32
ODONNELL 1N      N/A     53  51  93 S8        29.93F
PLAINS 3N        N/A     38  30  71 NW7       29.97F WCI  33
RALLS 1SE        N/A     55  55  99 S8        29.94S
REESE CENTER     N/A     42  35  76 NW7       29.95S
SEAGRAVES 1SW    N/A     40  35  83 NW7       29.96F
SEMINOLE 2NNE    N/A     45  33  63 NW9       29.94F
SLATON 2NE       N/A     47  46  97 SE3       29.93F
SNYDER 3E        N/A     53  52  98 SE5       29.92F
SUNDOWN 8SW      N/A     36  29  75 NW8       29.96F WCI  30
TAHOKA 3NNE      N/A     47  46  98 SE2       29.93S
WOLFFORTH 6SSW   N/A     45  39  79 NW12      29.94S
$$

TXZ031-032-036>038-042>044-181200-
TEXAS TECH WEST TEXAS MESONET/ROLLING PLAINS

CITY           SKY/WX    TMP DP  RH WIND       PRES   REMARKS
ASPERMONT 3NE    N/A     59  58  97 S6        29.91F
FLUVANNA 3WNW    N/A     55  53  92 S3        29.93S
GRAHAM 5SSW      N/A     54  52  95 E3        29.92F
GUTHRIE 10WSW    N/A     58  57  96 S7        29.90F
HASKELL 1NW      N/A     59  58  96 S7        29.92S
KNOX CITY 3NW    N/A     58  55  91 SW7       29.92S
LK A HENRY 1NW   N/A     56  55  95 SW2       29.92S
NORTHFIELD 1S    N/A     54  53  99 SE5       29.91F
ODELL 4ENE       N/A     57  57  99 E3        29.93F
PADUCAH 10SW     N/A     56  55  96 S3        29.91F
POST 1NE         N/A     54  53  97 CALM      29.93F
RRING SPRGS 3N   N/A     56  55  98 S2        29.92F
SEYMOUR 3NW      N/A     55  53  94 E2        29.93R
SPUR 1W          N/A     56  55  95 S2        29.91F
WEINERT 2NNE     N/A     56  55  97 S2        29.92F
WHITE RVR 6NE    N/A     57  55  95 SE3       29.92F
$$

TXZ052-054-060>062-072-078-127-140-154-169-181200-
TEXAS TECH WEST TEXAS MESONET/PERMIAN BASIN/
CONCHO VALLEY/BIG COUNTRY/EDWARDS PLATEAU

CITY           SKY/WX    TMP DP  RH WIND       PRES   REMARKS
COYANOSA 2N      N/A     53  33  46 SW2       29.94S
JUNCTION 1SSW    N/A     59  58  99 S2        29.93R
MERTZON 3NNE     N/A     54  52  93 W1        29.96F
SAN ANGELO 7NW   N/A     57  55  92 SW3       29.95S
STRLNG CT 4WSW   N/A     56  55  94 SW2       29.94F
ST LAWRNCE 5SW   N/A     58  56  91 SE6       29.94S
SWEETWATR 11SW   N/A     55  55 100 S7        29.95F
WALL 1E          N/A     57  54  89 SW5       29.94F
$$

TXZ055-058-074-075-080-082-181200-
TEXAS TECH WEST TEXAS MESONET/FAR WEST/SOUTHWEST MOUNTAINS/TRANS PECOS

CITY           SKY/WX    TMP DP  RH WIND       PRES   REMARKS
PRSMN GAP BBNP   N/A     62  60  91 N12       29.94R
$$



USA.gov is the U.S. government's official web portal to all federal, state and local government web resources and services.